Flag for Canada Weather past 2 weeks in Stephenville, Newfoundland and Labrador, Canada

Now
55 °F

Mostly cloudy.


Feels Like: 49 °F
Forecast: 49 / 57 °F
Wind: 35 mph from Southwest

Location: Stephenville

Current Time: Sep 20, 2014 at 4:20:43 PM

Latest Report: Sep 20, 2014 at 3:30 PM


Visibility: 15 mi

Pressure: 30.11 "Hg

Humidity: 63%

Dew point: 43 °F

Location of StephenvilleLocation

Historic Weather in Stephenville — Graph

°F

Stephenville temperature yesterday

Maximum temperature yesterday: 52 °F (at 2:30 PM)
Minimum temperature yesterday: 43 °F (at 9:30 AM)
Average temperature yesterday: 47 °F

Past Weeks' High & Low Weather Summary

 TemperatureHumidityPressure
High73 °F (Sep 11, 1:30 PM)94% (Sep 6, 9:30 PM)30.49 "Hg (Sep 6, 9:30 PM)
Low43 °F (Sep 19, 9:30 AM)38% (Sep 5, 5:30 PM)29.62 "Hg (Sep 6, 10:30 PM)
Average57 °F70%30.02 "Hg
* Reported Sep 5 10:30 AM — Sep 20 10:30 AM, Stephenville, Weather by CustomWeather, © 2014

Note: Actual official high and low records may vary slightly from our data, if they occured in-between our weather recording intervals... More about our weather records

Advertising

Stephenville weather history for previous 24 hours

 ConditionsComfort  
Time TempWeatherWind HumidityBarometerVisibility
10:30 AM
Sep 20
55 °FPassing clouds.26 mph59%30.18 "Hg15 mi
9:30 AM54 °FScattered clouds.23 mph63%30.18 "Hg15 mi
8:30 AM52 °FPartly sunny.22 mph67%30.20 "Hg15 mi
7:30 AM48 °FPassing clouds.14 mph66%30.22 "Hg15 mi
6:30 AM48 °FPassing clouds.9 mph66%30.23 "Hg15 mi
5:30 AM48 °FPassing clouds.12 mph62%30.22 "Hg15 mi
4:30 AM48 °FPassing clouds.16 mph66%30.20 "Hg15 mi
3:30 AM48 °FPassing clouds.14 mph66%30.18 "Hg15 mi
2:30 AM48 °FPassing clouds.13 mph71%30.17 "Hg15 mi
2:19 AMN/APassing clouds.12 mphN/AN/A15 mi
1:30 AM48 °FSprinkles. Passing clouds.15 mph71%30.16 "Hg15 mi
12:30 AM50 °FPassing clouds.17 mph58%30.15 "Hg15 mi
11:30 PM
Sep 19
50 °FPassing clouds.20 mph58%30.13 "Hg15 mi
10:30 PM48 °FPassing clouds.15 mph54%30.11 "Hg15 mi
9:30 PM48 °FPassing clouds.12 mph54%30.10 "Hg15 mi
8:30 PM48 °FPassing clouds.15 mph50%30.09 "Hg15 mi
7:30 PM48 °FPartly sunny.17 mph46%30.07 "Hg15 mi
6:30 PM50 °FScattered clouds.12 mph47%30.06 "Hg15 mi
5:30 PM50 °FPassing clouds.17 mph43%30.02 "Hg15 mi
4:30 PM50 °FPartly sunny.15 mph50%30.00 "Hg15 mi
Weather by CustomWeather, © 2014

See weather overviewHow to use our weather pages